Terminal Aerodrome Forecast
Issued by NWS Green Bay, WI

Home | Current Version | Previous Version | Graphics & Text | Print | Product List | Glossary On
Versions: 1 2 3 4 5 6 7 8 9 10 11 12 13 14 15 16 17 18 19 20 21 22 23 24 25
000
FTUS43 KGRB 251100
TAFGRB
TAF
KGRB 251121Z 2512/2612 05010KT P6SM OVC060
     FM251500 04011G18KT P6SM BKN080
     FM251800 04018G27KT P6SM SCT080
     FM252300 04010KT P6SM SKC=

USA.gov is the U.S. government's official web portal to all federal, state and local government web resources and services.